Theta_e
322 320 319 315 300 299 293 298 301 303 303 307 308 307 302 305 300 296 322 330 339 339 341 340 342 343 341 339 337 340 336 337 337 336 336 339 335 336 338 338 339 337 336 339 341 342 342 340 339
318 321 315 308 295 290 291 299 301 304 305 308 311 311 310 307 315 318 322 335 339 340 340 340 340 341 340 339 336 339 335 337 337 336 337 336 338 337 337 340 339 338 334 338 340 341 341 339 337
313 321 308 303 296 290 291 299 302 308 309 309 310 314 312 311 316 321 325 338 339 338 339 339 339 341 340 339 336 336 336 338 340 336 336 336 338 337 339 339 339 337 336 336 340 340 340 339 336
314 310 305 297 296 298 298 302 303 303 307 313 314 309 313 316 319 322 334 339 338 337 338 338 340 340 340 339 338 335 338 340 341 338 337 338 338 339 339 339 338 336 337 335 339 339 339 338 336
310 304 293 291 297 302 300 305 304 303 304 307 310 309 309 316 324 330 335 338 337 336 337 336 338 339 339 336 337 335 337 341 342 341 339 338 339 339 339 339 337 337 337 337 337 338 339 337 336
302 299 289 287 293 299 300 303 302 301 303 311 311 310 310 318 326 330 336 337 337 336 336 336 333 336 337 337 334 337 339 340 341 341 341 338 338 338 338 338 337 336 336 337 336 337 338 337 336
299 293 289 289 294 295 298 301 300 301 301 309 316 309 311 314 326 331 333 336 337 337 336 335 335 334 332 334 334 334 336 338 340 340 339 338 338 339 338 337 336 335 335 335 335 337 337 336 335
302 296 288 292 293 294 298 298 301 302 303 315 316 308 308 315 320 329 333 335 336 336 335 334 334 333 333 331 329 330 332 335 336 335 333 332 333 334 334 332 335 335 334 334 335 336 336 335 334
303 292 288 292 295 297 300 298 302 303 304 313 315 314 317 318 326 329 330 331 331 334 334 334 333 332 331 329 326 327 329 330 330 329 327 326 328 329 329 329 332 334 334 333 332 334 334 332 330
299 291 293 298 297 298 300 298 299 300 301 308 310 315 320 320 326 325 324 325 327 330 333 333 333 332 330 330 327 329 327 327 326 325 325 326 325 326 327 324 327 329 329 330 330 329 325 322 321
296 292 296 299 300 302 301 301 300 296 297 304 307 311 317 317 322 324 325 326 327 330 332 332 332 332 330 328 326 326 326 324 323 323 323 323 324 323 322 325 323 321 319 319 316 316 316 316 316
290 294 294 296 298 302 301 304 301 300 300 304 311 314 316 317 318 322 324 326 327 329 330 332 332 331 330 328 327 325 325 324 322 321 321 322 324 320 319 320 320 319 317 314 314 312 313 313 314
291 292 293 293 295 295 302 302 300 302 304 311 314 314 314 316 318 322 324 327 328 327 329 331 331 330 329 329 327 325 324 325 323 321 321 323 325 321 319 319 319 316 315 313 313 311 311 310 311
290 291 290 291 293 293 297 299 301 301 305 305 313 310 309 315 317 318 323 325 327 328 329 330 330 330 329 329 329 326 323 323 325 322 321 322 325 321 320 317 318 315 315 313 312 311 309 309 310
290 285 287 288 289 293 299 294 295 301 302 303 302 304 310 314 314 318 321 325 327 329 330 330 329 329 328 329 329 327 325 324 323 323 321 322 322 321 319 317 316 315 316 314 312 310 308 307 308
285 284 280 288 289 290 293 286 294 295 296 297 298 296 301 303 313 318 320 321 326 330 330 331 331 328 327 328 329 328 326 325 324 322 322 323 323 322 319 317 317 316 317 316 311 309 306 305 305
283 279 281 285 290 289 288 284 292 292 290 290 292 295 295 297 301 307 318 321 323 329 331 330 331 327 327 328 329 329 327 326 325 323 322 322 323 322 320 319 318 317 315 317 314 310 307 303 302
280 280 281 281 287 288 285 284 289 292 290 289 291 292 293 294 296 302 312 320 322 324 328 331 331 327 327 328 328 328 328 327 326 323 322 323 323 323 320 319 319 320 316 314 313 310 304 303 302
282 280 279 282 288 286 284 285 287 290 289 288 291 293 293 294 297 300 305 316 319 320 323 326 327 328 326 326 326 325 324 326 325 323 322 322 322 322 321 320 319 321 318 316 313 309 305 300 298
283 281 280 284 288 286 284 284 286 289 289 290 291 291 293 295 297 299 299 303 315 317 322 324 325 326 325 326 327 327 326 325 324 323 320 321 321 322 322 321 320 321 319 316 312 309 304 302 299
283 281 281 281 285 284 283 281 284 287 290 291 291 292 293 294 294 297 299 300 301 307 315 320 324 324 324 325 326 324 324 321 319 319 320 319 320 321 322 322 321 319 319 316 313 310 308 301 298
281 286 285 284 280 276 282 273 281 284 286 288 288 289 290 292 293 295 296 298 302 303 306 314 321 322 324 323 323 321 320 320 321 321 321 320 319 320 321 321 320 318 318 318 316 313 310 306 300
284 288 284 283 282 277 279 272 278 283 282 285 287 288 289 290 291 293 295 297 299 299 301 304 309 321 321 323 322 320 319 321 322 321 319 318 319 320 320 321 320 319 318 318 318 315 312 308 306
289 285 281 281 277 266 278 275 275 279 283 285 287 287 288 289 290 291 294 296 296 298 298 300 303 307 321 321 322 320 319 319 319 319 319 318 319 319 320 320 321 320 319 317 317 316 313 311 310
284 276 264 266 266 266 278 275 278 284 285 285 285 286 288 289 289 289 290 291 293 295 296 297 299 302 307 320 321 321 321 320 319 319 319 319 318 318 319 319 319 320 320 319 318 317 314 312 309
284 283 274 262 269 269 279 275 279 285 287 287 287 288 288 288 289 288 289 291 292 293 294 295 297 300 303 306 317 322 322 322 321 320 321 321 321 320 321 320 320 320 320 320 319 317 315 314 311
282 278 286 276 273 271 274 277 283 285 284 285 286 286 286 287 287 287 289 289 289 291 292 294 297 299 302 304 307 321 322 323 322 323 322 322 322 322 321 320 319 320 320 320 319 317 316 315 313
283 288 274 273 265 264 270 272 277 281 282 284 284 285 286 287 287 288 288 288 289 291 292 295 297 298 301 305 309 314 322 324 323 323 323 322 322 322 321 320 319 319 320 320 319 318 318 316 315
282 276 283 282 278 268 269 271 284 282 282 284 284 286 285 286 286 287 288 288 289 290 291 293 294 295 299 303 307 315 321 323 322 322 323 323 323 321 322 321 320 319 319 319 318 318 319 317 316
285 281 282 272 271 276 274 272 286 285 286 285 285 286 287 287 287 288 287 287 287 287 289 290 291 292 296 300 307 314 312 317 319 321 321 322 322 323 322 322 321 320 319 319 319 318 319 318 317
Wind_Speed
11 11 1 5 4 5 3 5 2 6 6 4 3 3 6 2 5 5 4 5 17 17 16 16 20 20 19 18 19 16 18 17 17 16 16 13 14 12 12 13 13 13 14 11 14 16 20 22 22
6 6 4 3 5 3 5 4 3 3 2 4 3 4 4 1 3 6 8 9 18 17 16 15 20 21 18 19 20 17 18 17 16 16 16 14 12 12 11 14 13 12 14 12 14 15 19 22 22
5 1 4 5 4 7 6 5 4 1 2 1 3 4 2 2 4 10 6 16 17 15 14 14 21 20 19 18 20 18 17 17 18 17 15 15 11 12 11 16 14 13 13 14 14 14 17 22 21
2 4 4 3 9 5 7 6 2 4 2 3 3 4 3 4 7 5 14 17 16 14 13 16 21 20 18 17 16 18 16 15 16 17 15 12 11 12 13 16 15 13 12 15 14 13 17 20 21
4 3 2 3 6 3 3 7 1 3 5 1 3 2 2 4 6 14 15 14 18 12 10 12 19 20 19 19 17 17 15 15 15 15 15 12 13 12 14 16 15 13 12 14 12 11 17 20 20
4 3 2 5 5 3 3 5 4 3 4 3 6 4 1 2 9 10 14 13 16 14 11 11 16 16 17 17 18 14 12 12 12 13 14 14 12 12 14 17 16 14 12 13 12 11 18 20 19
5 3 3 3 3 4 3 3 4 7 4 5 9 6 1 4 4 10 11 11 12 12 11 10 13 13 13 13 13 13 10 13 10 13 13 12 10 10 15 15 15 14 13 13 11 11 15 19 18
4 4 2 4 2 3 4 5 2 6 5 3 2 7 5 6 7 8 10 12 11 13 10 10 11 11 11 9 9 10 11 11 11 10 11 9 10 10 10 11 13 14 13 13 12 12 15 18 19
3 3 2 3 4 1 5 6 6 5 3 3 4 3 5 18 14 11 11 11 11 11 11 10 10 8 8 7 6 10 12 11 9 8 10 8 4 5 6 9 11 12 12 13 12 13 13 14 16
4 4 6 3 4 3 5 5 5 6 5 5 4 6 12 16 18 14 12 11 12 11 12 10 11 8 7 8 5 7 7 5 5 5 5 4 5 4 5 8 12 9 10 12 13 13 12 8 5
2 4 1 5 5 5 4 6 4 2 4 2 3 5 8 15 15 16 14 12 12 11 8 11 10 9 9 6 3 3 3 4 4 6 5 5 4 4 3 3 4 4 6 4 5 5 4 5 4
2 3 3 5 7 4 4 6 6 3 0 5 4 5 6 7 12 15 13 12 12 11 11 11 11 9 10 4 4 4 4 4 4 4 6 5 4 3 4 3 4 4 3 4 3 3 5 5 5
4 6 6 6 8 5 5 3 2 5 6 8 7 5 4 6 5 6 9 10 10 11 11 12 13 11 10 10 6 4 4 6 6 5 5 5 8 5 4 4 4 4 3 3 3 4 4 5 5
4 6 9 3 4 5 2 1 4 4 5 9 5 2 1 4 6 5 8 12 12 12 13 13 13 12 11 10 11 7 5 5 7 6 6 6 7 6 5 4 4 4 4 3 4 4 4 4 4
4 6 7 5 3 3 2 4 4 3 6 6 5 3 4 6 3 8 11 13 15 13 13 15 14 14 14 14 12 9 8 6 5 7 9 8 6 7 7 4 4 4 4 5 3 3 2 4 2
4 4 5 6 9 5 2 2 6 8 6 5 2 3 6 8 8 9 7 6 7 14 15 14 14 14 16 14 12 10 8 8 7 7 8 10 9 9 7 5 5 5 4 4 4 4 3 2 3
7 2 5 7 6 6 6 5 5 6 5 4 5 4 3 6 7 9 10 9 9 11 14 17 16 16 16 14 11 12 13 9 8 7 8 10 11 11 8 7 6 6 4 6 6 2 4 3 2
4 4 4 4 9 7 6 5 11 8 3 5 5 5 5 7 7 7 9 11 10 10 10 12 13 13 16 11 10 9 9 10 8 8 9 13 10 11 9 6 7 9 6 4 5 6 2 3 4
1 2 3 3 3 5 5 7 9 13 8 7 5 6 8 10 11 11 8 7 7 7 7 9 12 13 10 9 10 9 10 9 8 7 10 13 12 12 10 6 7 9 9 9 8 4 4 2 3
3 3 5 4 5 3 6 7 5 13 16 18 17 16 15 15 17 18 17 15 7 7 9 11 11 11 12 9 9 7 10 8 9 9 9 10 12 13 11 11 10 10 8 8 9 7 4 2 4
5 4 4 3 7 2 7 2 5 3 11 16 17 13 15 16 17 18 18 15 13 14 10 7 10 12 12 10 6 2 2 2 4 5 7 8 11 13 14 13 10 10 11 9 9 10 11 6 5
2 2 2 4 4 2 4 2 3 6 7 14 15 15 15 16 16 15 18 17 15 14 13 14 7 7 13 11 9 12 10 9 9 8 9 10 13 13 14 13 12 11 8 11 10 9 10 8 7
2 5 3 2 2 3 4 5 4 6 11 20 16 14 13 12 13 14 16 16 15 13 13 12 14 6 6 11 13 11 9 7 4 3 8 8 9 13 13 13 12 12 9 10 13 11 11 9 7
6 4 5 5 3 5 3 4 5 5 7 16 16 16 16 15 13 13 13 14 15 14 13 13 13 13 6 6 11 14 15 10 6 8 8 8 8 9 12 14 13 13 12 11 11 13 16 13 12
7 6 5 7 7 4 3 3 1 4 3 6 15 18 17 17 16 15 16 15 15 16 17 14 14 13 12 8 9 11 14 12 11 11 10 10 9 7 12 11 11 10 13 12 11 12 13 14 12
4 4 3 4 2 5 4 1 4 1 1 6 8 16 19 18 18 18 17 15 14 15 15 16 14 14 11 10 10 10 11 9 11 11 10 10 10 11 13 13 14 14 14 14 13 10 11 12 12
3 5 3 3 3 1 3 2 4 4 6 11 16 16 16 17 19 19 17 14 15 12 13 16 15 14 12 11 10 11 11 11 11 14 11 10 11 10 13 13 14 16 14 14 14 11 13 12 13
4 1 4 4 4 4 4 2 4 14 17 17 17 14 15 15 15 15 15 15 13 13 12 13 14 13 13 15 13 11 13 12 12 10 11 11 11 11 10 12 12 14 14 14 14 13 14 14 12
4 4 2 1 2 3 4 3 4 7 9 10 12 12 14 15 16 15 14 14 13 13 13 12 11 13 12 12 14 11 10 10 9 8 8 9 8 8 10 11 12 13 14 13 13 15 16 16 16
1 2 2 4 5 2 2 4 4 4 5 6 8 11 12 14 15 15 15 15 13 13 13 13 13 13 13 11 11 4 6 5 1 3 5 6 9 10 11 11 11 12 13 13 14 16 15 16 16
Wind_Direction
327 311 357 34 51 66 251 257 256 305 341 336 1 150 174 71 159 205 133 142 135 141 146 145 144 141 147 135 144 140 140 136 135 132 131 135 131 132 125 127 119 124 124 114 114 108 113 108 102
321 317 34 80 108 151 255 249 228 255 249 133 44 3 32 63 59 115 121 155 140 142 145 147 145 144 145 143 146 147 141 139 136 132 136 136 135 139 136 127 123 118 126 130 115 120 122 116 113
303 26 89 135 170 199 204 222 215 209 177 140 90 64 22 98 34 155 135 147 139 143 145 143 143 145 146 152 148 149 144 149 136 140 144 146 145 140 133 129 122 120 128 131 125 124 128 121 119
357 14 26 129 221 255 185 201 190 344 333 97 116 55 342 317 152 175 144 143 139 143 145 148 136 148 153 154 153 152 148 157 143 144 146 149 140 135 140 128 120 122 126 133 121 126 134 126 123
21 52 102 259 252 231 205 265 32 306 306 78 123 145 357 11 100 129 141 147 143 141 144 146 143 152 151 161 158 153 163 141 150 145 145 137 129 122 134 121 118 118 117 121 123 129 140 131 126
31 87 93 224 259 293 250 266 318 249 259 137 83 107 147 65 121 139 140 150 150 138 146 145 141 153 156 156 161 149 144 133 130 142 135 130 125 125 137 125 123 121 123 117 116 118 136 131 127
119 80 224 241 262 271 250 192 225 243 214 226 151 121 207 107 121 133 130 143 146 138 141 143 149 154 154 165 160 153 161 132 125 144 130 126 125 128 137 123 125 125 131 120 117 127 130 134 130
106 107 241 257 208 299 350 308 346 172 230 100 136 169 196 159 122 114 121 144 148 148 139 149 147 157 158 161 178 160 139 123 127 121 118 108 114 118 124 117 120 124 128 121 111 118 133 129 130
105 63 230 267 174 198 335 10 329 291 126 47 20 137 142 128 122 131 145 155 161 156 151 151 151 154 153 157 157 132 131 134 124 116 111 100 101 108 110 109 110 116 119 117 111 108 111 115 122
116 142 222 248 357 26 333 12 321 13 25 22 38 27 122 134 140 151 164 167 170 169 160 158 155 154 153 166 154 137 132 128 126 123 122 114 113 113 114 115 105 103 110 110 114 111 93 84 104
151 195 234 2 355 335 304 347 332 16 25 18 301 164 143 150 158 150 175 175 174 165 166 166 159 158 162 155 138 128 129 126 126 130 124 112 109 111 107 107 106 103 82 77 79 91 86 108 106
312 41 23 340 331 2 356 332 342 19 222 304 251 176 129 148 164 159 168 177 173 169 172 169 164 166 167 133 152 137 134 140 137 142 133 126 125 117 122 117 129 124 112 108 98 109 118 110 115
13 333 322 322 299 319 323 359 320 332 7 35 81 98 147 153 135 168 167 170 185 181 177 177 168 172 171 163 157 157 154 157 156 150 151 142 158 154 145 151 146 136 131 138 130 127 128 123 123
300 289 293 292 272 294 308 281 28 27 10 18 87 102 226 209 162 135 168 177 184 187 186 184 177 175 172 179 173 170 158 153 160 163 164 156 167 166 163 166 143 149 158 157 149 144 153 141 141
288 342 333 9 324 248 171 292 187 321 2 16 357 330 273 255 264 218 193 185 183 191 187 188 183 182 179 183 178 178 172 161 166 173 169 164 164 170 167 160 153 169 166 160 131 105 80 110 103
3 50 28 357 23 337 30 323 298 31 13 323 303 275 284 282 248 239 224 222 212 187 192 193 192 188 187 187 180 183 184 176 179 175 175 173 169 171 170 167 176 167 161 160 155 148 125 129 149
14 37 17 337 51 353 50 276 297 360 12 339 334 343 330 292 272 249 236 213 203 208 198 195 194 189 192 194 181 186 188 185 183 176 183 179 177 176 178 182 181 166 173 176 165 152 133 162 159
333 12 351 334 342 357 353 302 303 315 302 269 290 319 336 326 309 281 244 229 205 207 211 199 196 198 193 189 182 183 192 198 189 177 190 179 183 182 180 187 184 178 176 181 171 157 126 152 165
350 19 317 269 342 342 339 314 321 341 7 342 341 2 7 355 339 354 340 265 206 201 204 206 190 193 188 195 184 184 195 193 196 191 183 186 183 180 183 187 193 189 184 186 175 145 152 122 132
30 8 347 296 333 355 352 315 354 45 44 48 45 33 19 12 6 5 15 7 325 279 227 215 197 192 196 194 198 200 190 200 199 183 189 188 182 175 185 191 195 192 187 187 175 153 135 128 174
43 61 349 292 314 6 347 59 28 49 41 38 35 25 23 14 1 357 0 360 6 9 323 276 221 192 196 199 195 219 183 103 154 201 196 188 181 184 191 197 191 193 187 190 187 177 170 170 194
28 269 273 308 21 336 25 209 18 350 16 30 23 16 4 2 358 353 351 353 359 355 354 351 305 252 190 182 189 197 197 199 201 194 203 191 187 190 194 196 194 192 201 190 191 185 186 156 185
298 317 297 251 206 51 4 71 278 10 353 355 358 2 357 356 354 348 342 344 341 349 347 345 345 307 266 195 188 195 209 218 186 166 176 199 201 200 196 196 200 198 197 204 190 186 194 196 179
295 19 42 35 50 42 291 106 336 10 347 340 340 353 351 349 351 345 337 338 339 343 345 344 345 334 289 232 212 195 202 200 185 187 196 203 204 212 212 201 201 203 205 202 201 194 197 197 209
2 45 359 8 14 205 36 49 329 348 1 340 333 341 347 346 345 344 341 342 335 338 338 336 336 324 328 296 226 221 214 212 205 196 199 197 202 208 219 217 219 212 209 207 202 204 204 206 206
10 13 79 173 344 288 325 276 173 28 127 352 352 346 343 342 343 340 335 331 333 329 329 325 324 314 318 310 285 221 221 207 205 207 208 208 209 208 213 208 218 222 215 213 204 206 213 210 214
331 46 330 106 33 17 274 78 306 10 11 360 359 356 347 342 343 341 336 333 327 328 324 322 316 311 307 300 291 255 222 216 219 216 213 213 211 215 215 215 214 221 218 215 211 211 215 212 218
94 261 22 3 35 327 310 333 313 348 345 347 356 353 340 341 340 340 339 337 332 328 327 320 315 311 307 300 289 258 233 222 223 230 220 220 220 213 211 214 217 224 224 220 214 217 223 219 222
6 21 359 305 142 158 305 281 358 341 336 343 346 339 343 344 348 345 344 338 337 336 338 333 331 329 323 314 298 246 233 228 222 215 221 211 223 206 209 212 219 223 227 221 219 224 229 227 228
15 154 95 103 304 268 185 264 0 347 343 330 336 335 342 347 348 342 339 337 342 346 347 348 347 339 333 331 337 41 63 30 10 229 246 249 219 222 222 220 224 227 223 218 223 228 227 232 237